CamptonHillsWeather.com

Find the Weather for any City, State  
or Zipcode, or Country:

Campton Hills, IL Weather
Local Radar

Local Radar

Graphs, Details
Graphs and Gauges
Detailed Weather
Detailed Reports
Ajax Version (old)
Central Kane Co Summary
Davis Current Weather Graphs
Davis 24 Hour Weather History

CW3778 Data

Weather Underground
Maps
Temperature
Heat Index
Windchill
Humidity
Radar
Dew Point
Wind
Visibility
Visible Satellite
Satellite
Fronts
Snow Depth
Jet Stream
Flight Rules
Forecast Maps
Temperature Forecast
Maximum Temperature Forecast
Minimum Temperature Forecast
Dewpoint Forecast
Prevalent Weather
12Hr Probability of Precip.
Sky Cover
Health Maps
UV Forecast
Air Quality
Peak Air Quality Index
Weather Station
Davis Instruments Vantage Pro
Current Conditions [Select Refresh to Update]

Updated: 5:37am on 4/1/15

(location)
Currently:
40.3F

Clear
Clear

High: 45.3 F< 
(12:58am
Low: 39.6 F 
(5:03am)
Wind: SW 2 mph
Light Air
Gust: 2 mph
Today's High Wind: 4 mph (12:54am)
Humidity: 83%
Pressure: 30.00 in  (Steady
Pressure Rate: 0.012 in/hr
Dew Point: 35.6F
Wind Chill: 40.1 F
Heat Index (feels like): 44.9 F
Comfort Level: Cool
Temperature Rate:  -0.70F/hr
 
5 Day Forecast
 
Wed Thu Fri Sat Sun
Clear Clear Clear Clear Clear
Hazy T-storms Snow Mostly Cloudy Chance Rain
69 64 46 54 52
50 40 27 34 38

Records and Normals
 
Temperature Forecast Normal Record
High 69 0 0
(0)
Low 50 0 0
(0)
 
Links
 
 
Weather Advisories
No Advisories
Full Advisory Text...
Weather Map

Web Cam

Almanac
 
Sunrise:  
6:35am
Moonrise: 
4:55pm

Moon Phase:
85%

Sunset: 
7:17pm
Moonset:  
5:11am
 Star Chart...
Rainfall Totals
Hourly Rain 0.00 in
Daily Rain: 0.00 in
Monthly Rain: 0.00 in
Yearly Rain: 1.98 in
Normal Rain, month to date: 0.00 in
Normal Rain, year to date: 0.00 in
Link to Village of Campton Hills Map

Link to Counties of Illinois Map

Local Weather Exchange Network
Station ID City 
(Click for Map Location)
Neighborhood 
(Click for History)
Last Update (Date & Time) Temperature
 ()
Dew
Point ()
Humidity 
(%)
Wind 
(mph)
from the Wind Gust 
(mph) 
Pressure(in) Hourly
Rain(in)
KILSAINT10 Saint Charles Saint Charles Burr Road 04/01 05:30:39 34.5 32.0 91 0 SSW 0 29.73 0.00
KILSTCHA10 St. Charles Hunt Club 04/01 05:34:02 34.2 30.0 85 0 ESE 0 29.50 0.00
KILSAINT8 Saint Charles St. Charles Near West Side 04/01 05:32:22 30.9 30.0 95 0 East 0 29.76 0.00
KILWAYNE4 Wayne Hampton Course 04/01 05:30:58 39.9 34.0 80 0 North 0 30.08 0.00
KILSAINT7 Saint Charles Silver Glen 04/01 05:33:47 36.7 33.0 87 0 SSW 0 29.55 0.00
KILSOUTH6 South Elgin Thornwood 04/01 05:24:27 30.7 30.0 96 0 ENE 0 29.89 0.00
KILCAMPT3 Campton Hills Campton Hills 04/01 05:34:09 36.2 32.0 85 0 SW 0 30.00 0.00
KILSAINT6 Saint Charles 3 Lakes 04/01 05:29:26 30.4 28.0 91 0 NNE 0 29.76 0.00
KILSAINT9 Saint Charles Fox Chase 04/01 05:34:08 37.4 34.0 87 0 SW 0 29.96 0.00
KILGENEV6 Geneva Dover Ridge 04/01 05:34:02 36.9 33.0 87 0 West 0 29.98 0.00
MUR354 Geneva MesoWest 04/01 04:40:00 33.0 0.0 0 1 SSE 2 0.00 0.00
KILGENEV10 Geneva Southampton Drive 04/01 05:31:13 33.1 30.0 90 0 North 0 30.05 0.00
KILSTCHA8 St. Charles Ronzheimer Ave. & S. Tyler Rd. 04/01 05:34:07 36.2 32.0 85 0 SSW 0 29.97 0.00
KILGENEV9 Geneva Saint Andrews Circle 04/01 05:30:49 32.4 31.0 93 0 North 0 30.04 0.00
KILGENEV3 Geneva Mill Creek (NE) 04/01 05:33:53 30.0 28.0 92 0 West 0 30.05 0.00
KILSTCHA1 St Charles CamptonHillsWeather.com Central Kane County 04/01 05:34:04 40.3 36.0 83 2 SW 2 30.00 0.00
KILGENEV7 Geneva Eldorado Drive 04/01 05:30:56 36.7 32.0 83 0 North 0 29.90 0.00
KILGENEV8 Geneva Alexander Drive 04/01 05:30:46 37.4 30.0 74 0 North 0 29.06 0.00
KILSOUTH5 South Elgin Concord Park 04/01 05:26:46 32.5 32.0 97 0 NE 0 29.74 0.00
KILGENEV2 Geneva Mill Creek 04/01 05:25:45 36.6 34.0 90 0 South 0 29.94 0.00
KILGENEV12 Geneva Crego Place 04/01 05:31:16 29.1 28.0 96 0 North 0 29.84 0.00
KILBATAV7 Batavia Charleston Street 04/01 05:31:08 33.4 29.0 84 0 North 0 30.05 0.00
KILBATAV1 Batavia Tri-Cities on the Fox River 04/01 05:32:46 34.9 31.0 85 0 West 0 30.00 0.00
KILELGIN16 Elgin Providence Subdivision 04/01 05:29:18 30.4 30.0 99 0 NW 0 29.75 0.00
KILELBUR10 Elburn Prairie Valley North 04/01 05:33:48 38.8 34.0 83 2 SSE 3 30.08 0.00
KILELBUR9 Elburn Griffith Avenue 04/01 05:30:29 39.2 32.0 74 0 North 0 29.20 0.00
KILELBUR5 Elburn Prairie Highlands 04/01 05:30:16 38.9 35.0 86 0 North 0 29.99 0.00
KILWESTC12 West Chicago Woodland Avenue 04/01 05:31:20 40.1 32.0 71 0 North 0 30.04 0.00
KILBATAV3 Batavia West Batavia 04/01 05:21:02 36.2 33.0 88 0 WNW 0 29.96 0.00
KILELBUR6 Elburn Columbine Square 04/01 05:19:37 39.5 35.0 83 0 SE 1 29.94 0.00
KILBATAV5 Batavia Fermi National Accelerator Laboratory 04/01 05:19:58 39.8 35.0 84 0 South 2 29.94 0.00
KILELBUR8 Elburn Columbine 04/01 05:24:50 33.3 31.0 91 0 SSW 1 29.97 0.00
KILWESTC5 West Chicago THEBROWNHOUSE.ORG 04/01 05:34:09 34.4 30.0 85 0 SSW 0 29.96 0.00
KILWESTC8 West Chicago Ingalton Hills Estates 04/01 05:34:01 38.0 36.0 93 0 SE 0 30.12 0.00
KILNORTH11 North Aurora Waterford Oaks 04/01 05:34:07 38.8 35.0 87 0 SE 1 29.98 0.00
KILELGIN10 Elgin Wing Park 04/01 05:34:10 37.3 34.0 86 1 SW 2 30.00 0.00
MUP188 Elburn MesoWest 04/01 03:20:00 41.0 0.0 0 0 North 0 0.00 0.00
KILELGIN17 Elgin Springbrook Court 04/01 05:31:00 41.4 33.0 72 0 North 0 29.86 0.00
KILELGIN14 Elgin Elgin, IL 04/01 05:33:57 34.0 31.0 89 0 WSW 0 29.92 0.00
MUP431 West Chicago MesoWest 04/01 04:10:00 37.0 0.0 0 0 North 0 0.00 0.00
Full Advisory Text
No Warnings

Ambient Weather and Weather Underground
 Never base important decisions on this or any weather information obtained from the Internet
Updated Automatically by Ambient Weather's Virtual Weather Station  V13.01